Flag for U.S.A. Weather past 2 weeks in Clarksville, Tennessee, U.S.A.

Now
34 °F

Overcast.


Feels Like: 30 °F
Forecast: 31 / 42 °F
Wind: 5 mph from Southeast

Location: Outlaw Field

Current Time: Jan 26, 2015 at 11:48:28 PM

Latest Report: Jan 26, 2015 at 10:52 PM


Visibility: 10 mi

Pressure: 29.96 "Hg

Humidity: 88%

Dew point: 31 °F

Location of ClarksvilleLocation

Historic Weather in Clarksville — Graph

°F

Clarksville temperature yesterday

Maximum temperature yesterday: 51 °F (at 11:52 AM)
Minimum temperature yesterday: 38 °F (at 5:52 AM)
Average temperature yesterday: 43 °F

Past Weeks' High & Low Weather Summary

 TemperatureHumidityPressure
High64 °F (Jan 19, 2:52 PM)100% (Jan 12, 3:52 AM)30.53 "Hg (Jan 12, 3:52 AM)
Low23 °F (Jan 16, 6:52 AM)24% (Jan 18, 2:52 PM)29.60 "Hg (Jan 25, 1:52 PM)
Average38 °F72%30.12 "Hg
* Reported Jan 11 9:52 PM — Jan 26 9:52 PM, Clarksville, Weather by CustomWeather, © 2014

Note: Actual official high and low records may vary slightly from our data, if they occured in-between our weather recording intervals... More about our weather records

Advertising

Clarksville weather history for previous 24 hours

 ConditionsComfort  
Time TempWeatherWind HumidityBarometerVisibility
9:52 PM
Jan 26
34 °FOvercast.5 mph88%29.97 "Hg10 mi
8:52 PM35 °FOvercast.No wind85%29.97 "Hg10 mi
7:52 PM36 °FOvercast.No wind75%29.98 "Hg10 mi
6:52 PM36 °FOvercast.5 mph75%29.99 "Hg10 mi
5:52 PM37 °FOvercast.6 mph70%29.97 "Hg10 mi
4:52 PM37 °FOvercast.3 mph67%29.96 "Hg10 mi
3:52 PM37 °FMore clouds than sun.8 mph65%29.96 "Hg10 mi
2:52 PM37 °FOvercast.8 mph65%29.96 "Hg10 mi
1:52 PM35 °FPartly sunny.7 mph72%29.96 "Hg10 mi
12:52 PM34 °FOvercast.8 mph79%30.00 "Hg10 mi
11:52 AM33 °FOvercast.8 mph82%30.03 "Hg10 mi
10:52 AM33 °FOvercast.12 mph82%30.06 "Hg10 mi
9:52 AM33 °FOvercast.10 mph82%30.04 "Hg10 mi
8:52 AM32 °FOvercast.14 mph82%30.02 "Hg10 mi
7:52 AM32 °FOvercast.16 mph85%30.00 "Hg10 mi
6:52 AM33 °FMore clouds than sun.14 mph85%29.98 "Hg10 mi
6:00 AM33 °FOvercast.15 mph85%29.96 "Hg10 mi
4:52 AM33 °FOvercast.18 mph85%29.94 "Hg10 mi
4:04 AM33 °FMostly cloudy.17 mph85%29.91 "Hg10 mi
3:52 AM33 °FOvercast.14 mph88%29.90 "Hg10 mi
2:52 AM34 °FLow clouds.21 mph88%29.90 "Hg10 mi
2:01 AM35 °FOvercast.20 mph88%29.87 "Hg10 mi
12:52 AM37 °FFog.20 mph93%29.83 "Hg5 mi
11:52 PM
Jan 25
40 °FMostly cloudy.21 mph89%29.79 "Hg10 mi
11:03 PM42 °FOvercast.18 mph89%29.77 "Hg10 mi
Weather by CustomWeather, © 2014

See weather overviewHow to use our weather pages